Location: São Paulo
(23.5507°S, 46.6334°W)
Time: 23:59:03
(UTC-03:00)

Hubble Space Telescope - Pass Details

Date: 01 August 2021
Orbit: 535 x 539 km, 28.5° (Epoch: 23 September)

Event Time Altitude Azimuth Distance (km) Brightness Sun altitude
Exits shadow 04:14:56 15° 114° (ESE) 1,519 3.6 -33.5°
Drops below altitude 10° 04:15:39 10° 112° (ESE) 1,794 4.1 -33.4°
Sets 04:17:57 0° 108° (ESE) 2,687 5.2 -32.8°
